[[{"header":{"parameterUnit":"m.s-1","parameterCategory":1,"la1":30.2991,"la2":30.254,"lo1":-89.0895,"lo2":-89.0444,"dy":0.0017,"dx":0.0017,"nx":28,"ny":28,"refTime":"2024-08-31T03:00:00:Z","depth":0,"parameterNumber":2,"parameterNumberName":"U-component_of_WINDS"},"data":[0,0,0,0,0,0,0,0,0,0,0,0,0,0,0,0,0,0,0,0,0,0,0,0,0,0,0,0,0,0,0,0,0,0,0,0,0,0,0,0,0,0,0,0,0,0,0,0,0,0,0,0,0,0,0,0,0,0,-4.9956,-4.9957,0,-5.0006,-5.0006,-5.0007,-4.9913,-4.991,-4.9907,-4.9904,-4.9956,-4.996,-4.9965,0,0,0,0,0,0,0,0,0,0,0,0,0,-4.9782,-4.9785,-4.9956,-4.9957,-4.9957,-5.0006,-5.0006,-5.0007,-4.9914,-4.991,-4.9906,-4.9903,-4.9955,-4.996,-4.9965,0,0,0,0,0,0,0,0,0,0,0,0,0,-4.9847,-4.9787,-4.9956,-4.9917,-4.9913,-5.0006,-5.0006,-5.0007,-4.9915,-4.991,-4.9905,-4.9901,-4.9953,-4.9959,-4.9966,-5.0099,0,0,-4.9985,-4.9988,0,0,0,0,0,0,0,0,-4.9844,-4.9854,-4.9922,-4.9919,-4.9916,-4.9948,-4.9964,-5.0038,-4.9916,-4.9914,-4.9904,-4.9899,-4.9958,-4.9963,-4.9983,-5.0101,-5.0104,-4.9986,-4.999,-4.9993,-4.9995,0,0,0,0,0,0,0,-4.9839,-4.9851,-4.9976,-4.9923,-4.9919,-4.9897,-4.9901,-4.9978,-4.9962,-4.9914,-4.9907,-4.9914,-4.9955,-4.9977,-4.9983,-5.0104,-4.9986,-4.9992,-4.9996,-4.9998,-5.0334,-5.0339,0,0,0,0,0,0,-4.9839,-4.9848,-4.9974,-4.9977,-4.9868,-4.9904,-4.9908,-4.9943,-4.996,-4.9959,-4.9918,-4.991,-4.9968,-4.9976,-4.9985,-5.014,-4.9993,-4.9999,-5.0002,-5.0329,-5.0335,-5.034,0,0,0,0,0,0,-4.9836,-4.9851,-4.9972,-4.9911,-4.9924,-4.9912,-4.9951,-4.9946,-4.9968,-4.9964,-4.996,-4.9943,-4.9965,-4.9976,-5.0071,-5.0141,-5.0002,-5.0007,-5.0323,-5.0331,-5.0338,-5.0454,0,0,0,0,0,0,-4.9831,-4.9851,-4.9901,-4.9913,-4.9928,-5.0057,-4.9956,-4.9951,-4.9979,-4.9968,-4.9986,-4.9985,-4.9962,-5.0062,-5.0077,-5.0147,-5.0012,-5.0316,-5.0326,-5.0335,-5.0443,-5.0464,-5.0482,0,0,0,0,0,-4.9825,-4.9932,-4.9904,-4.9919,-4.999,-5.0061,-5.007,-5.0041,-4.9985,-5.0035,-5.0033,-4.9984,-5.0132,-5.0072,-5.0089,-5.0162,-5.0312,-5.0323,-5.0334,-5.0435,-5.046,-5.0481,0,0,0,0,0,0,-4.9929,-4.9933,-4.9901,-5.0015,-5.0038,-5.0045,-5.0107,-5.0069,-5.0109,-5.0098,-5.0061,-5.0066,-5.0168,-5.0175,-5.0109,-5.0291,-5.0212,-5.0227,-5.0283,-5.0307,-5.0326,-5.0321,-5.0018,0,0,0,0,0,-4.9965,-5.0022,-5.0022,-5.0122,-5.0136,-5.012,-5.015,-5.0126,-5.0149,-5.0159,-5.0163,-5.0188,-5.0239,-5.0274,-5.0321,-5.0445,-5.0447,-5.0504,-5.0523,-5.0539,-5.0551,-5.0616,-5.0641,-5.0378,-5.0378,-5.0377,0,0,-5.004,-5.0049,-5.0087,-5.0143,-5.0159,-5.0219,-5.0129,-5.0196,-5.024,-5.0169,-5.0258,-5.0263,-5.0288,-5.0398,-5.0446,-5.0406,-5.0625,-5.0553,-5.0566,-5.057,-5.0631,-5.0656,-5.0678,-5.0385,-5.0384,-5.0383,0,0,-5.0206,-5.0219,-5.0303,-5.0321,-5.0345,-5.0334,-5.0355,-5.0368,-5.0368,-5.0457,-5.0404,-5.0457,-5.0547,-5.0567,-5.0589,-5.0764,-5.0721,-5.0781,-5.0881,-5.0945,-5.0965,-5.0983,-5.1044,-5.1067,-5.0794,-5.0795,-5.0795,0,-5.0295,-5.0383,-5.0351,-5.0422,-5.0448,-5.0387,-5.0472,-5.049,-5.053,-5.0549,-5.0504,-5.0616,-5.0629,-5.0741,-5.0784,-5.0805,-5.0827,-5.0777,-5.0965,-5.0983,-5.0999,-5.1057,-5.108,-5.0802,-5.0801,-5.08,-5.08,0,-5.0491,-5.0553,-5.0618,-5.0657,-5.0691,-5.0769,-5.0749,-5.0787,-5.0761,-5.0755,-5.0847,-5.0861,-5.0909,-5.0935,-5.091,-5.1045,-5.1019,-5.0971,-5.0889,-5.1032,-5.1085,-5.1107,-5.0812,-5.0809,-5.0807,-5.0805,0,0,-5.0721,-5.0742,-5.0766,-5.0783,-5.0806,-5.0853,-5.0929,-5.0976,-5.1009,-5.1039,-5.1101,-5.1179,-5.1134,-5.1159,-5.1137,-5.1193,-5.133,-5.1137,-5.1137,-5.1171,-5.1477,-5.1511,-5.1537,-5.1302,-5.1306,-5.131,-5.1474,0,-5.0884,-5.1012,-5.0987,-5.1113,-5.1169,-5.1113,-5.1178,-5.12,-5.1197,-5.1245,-5.1242,-5.1297,-5.1235,-5.1249,-5.1303,-5.1302,-5.139,-5.129,-5.1358,-5.1361,-5.1351,-5.1565,-5.1602,-5.1756,-5.1495,-5.1498,-5.1501,0,-5.109,-5.1127,-5.1259,-5.1273,-5.1295,-5.1355,-5.1396,-5.1443,-5.1467,-5.1461,-5.149,-5.1457,-5.1532,-5.1452,-5.1555,-5.1488,-5.1515,-5.1519,-5.1524,-5.1527,-5.1437,-5.1572,-5.1805,-5.1827,-5.1534,-5.1531,-5.1529,0,-5.1242,-5.1325,-5.1414,-5.143,-5.145,-5.1492,-5.1503,-5.1522,-5.1552,-5.1589,-5.1608,-5.1654,-5.1678,-5.1715,-5.1695,-5.1639,-5.1801,-5.172,-5.1797,-5.1798,-5.1831,-5.1829,-5.2069,-5.1854,-5.1853,-5.1853,-5.1852,0,-5.1425,-5.1507,-5.1482,-5.1536,-5.1627,-5.1598,-5.1688,-5.1692,-5.171,-5.1764,-5.172,-5.1772,-5.1744,-5.1795,-5.178,-5.1867,-5.1879,-5.1876,-5.187,-5.1878,-5.1878,-5.1893,-5.1881,-5.1859,-5.1858,-5.1856,-5.1855,0,-5.1608,-5.1595,-5.1688,-5.1699,-5.1704,-5.177,-5.1779,-5.183,-5.1825,-5.1894,-5.1909,-5.1901,-5.1958,-5.1943,-5.2005,-5.1995,-5.2104,-5.2086,-5.2095,-5.209,-5.2167,-5.2159,-5.2423,-5.2455,-5.2222,-5.2224,-5.2226,0,-5.1724,-5.1785,-5.1803,-5.1836,-5.185,-5.1904,-5.1934,-5.1909,-5.1943,-5.1975,-5.2022,-5.2076,-5.2116,-5.221,-5.2209,-5.2257,-5.2239,-5.2328,-5.2245,-5.2251,-5.2237,-5.2233,-5.2238,-5.2343,-5.2346,-5.2348,-5.235,0,-5.193,-5.1921,-5.1966,-5.201,-5.2048,-5.2081,-5.211,-5.214,-5.2117,-5.2157,-5.2215,-5.2247,-5.231,-5.2363,-5.2407,-5.2417,-5.238,-5.2377,-5.2397,-5.2404,-5.2405,-5.2403,-5.2137,-5.237,-5.2368,-5.2367,-5.2365,-5.2365,-5.2082,-5.2133,-5.2154,-5.2206,-5.2226,-5.2254,-5.2302,-5.2303,-5.2351,-5.24,-5.2383,-5.2448,-5.2471,-5.2526,-5.2543,-5.2594,-5.256,-5.2589,-5.2596,-5.2603,-5.2612,-5.24,-5.2602,-5.2602,-5.2601,-5.2601,-5.26,0,-5.2284,-5.2295,-5.2343,-5.2385,-5.2427,-5.2389,-5.2419,-5.2456,-5.2514,-5.2539,-5.258,-5.2646,-5.2698,-5.2702,-5.2751,-5.2791,-5.2775,-5.2804,-5.2799,-5.2802,-5.264,-5.2617,-5.2816,-5.2816,-5.2816,-5.2816,-5.2816,-5.2816,-5.2394,-5.2479,-5.2473,-5.2567,-5.2578,-5.2641,-5.2662,-5.2688,-5.2707,-5.2783,-5.2825,-5.2828,-5.2844,-5.2894,-5.2939,-5.2939,-5.2958,-5.2994,-5.2987,-5.2835,-5.2814,-5.2793,-5.2771,-5.2999,-5.2999,-5.3144,-5.3146,-5.3147]},{"header":{"parameterUnit":"m.s-1","parameterCategory":1,"la1":30.2991,"la2":30.254,"lo1":-89.0895,"lo2":-89.0444,"dy":0.0017,"dx":0.0017,"nx":28,"ny":28,"refTime":"2024-08-31T03:00:00:Z","depth":0,"parameterNumber":3,"parameterNumberName":"V-component_of_WINDS"},"data":[0,0,0,0,0,0,0,0,0,0,0,0,0,0,0,0,0,0,0,0,0,0,0,0,0,0,0,0,0,0,0,0,0,0,0,0,0,0,0,0,0,0,0,0,0,0,0,0,0,0,0,0,0,0,0,0,0,0,2.0159,2.016,0,2.0289,2.0291,2.0292,2.0325,2.0324,2.0323,2.0323,2.0458,2.0462,2.0466,0,0,0,0,0,0,0,0,0,0,0,0,0,1.994,1.9944,2.0159,2.0161,2.0162,2.0289,2.0291,2.0293,2.0325,2.0324,2.0323,2.0322,2.0456,2.0461,2.0467,0,0,0,0,0,0,0,0,0,0,0,0,0,2.0049,1.9945,2.0159,2.0194,2.0198,2.0289,2.0291,2.0293,2.0325,2.0324,2.0323,2.0322,2.0455,2.0461,2.0467,2.0533,0,0,2.0487,2.049,0,0,0,0,0,0,0,0,2.0043,2.0057,2.0187,2.0191,2.0197,2.029,2.0263,2.0374,2.0326,2.0277,2.0323,2.0321,2.0403,2.0414,2.0441,2.0539,2.0545,2.0488,2.0492,2.0495,2.0497,0,0,0,0,0,0,0,2.0035,2.0052,2.0211,2.0189,2.0195,2.0203,2.0218,2.0284,2.0346,2.0281,2.0284,2.0299,2.0405,2.0434,2.0444,2.0547,2.0488,2.0494,2.0498,2.05,2.0706,2.0708,0,0,0,0,0,0,2.0021,2.0045,2.0206,2.0214,2.0115,2.0208,2.0224,2.0261,2.0345,2.0356,2.03,2.03,2.0424,2.0437,2.0449,2.0532,2.0495,2.0501,2.0505,2.0705,2.0707,2.0708,0,0,0,0,0,0,2.0016,2.0035,2.0201,2.0131,2.0152,2.0213,2.0255,2.0264,2.0293,2.0359,2.037,2.0318,2.0423,2.044,2.0512,2.0537,2.0504,2.051,2.0703,2.0705,2.0707,2.0697,0,0,0,0,0,0,2.001,2.0033,2.0059,2.0131,2.0156,2.0261,2.0256,2.0268,2.0304,2.0306,2.0379,2.039,2.0424,2.0502,2.0518,2.0545,2.0515,2.0701,2.0704,2.0707,2.0695,2.0699,2.0701,0,0,0,0,0,2.0002,2.0051,2.006,2.0079,2.0189,2.0263,2.0277,2.0314,2.0306,2.0332,2.0374,2.0388,2.0531,2.0509,2.0528,2.0557,2.07,2.0703,2.0706,2.0694,2.0698,2.0701,0,0,0,0,0,0,1.9981,2.0061,2.0072,2.0145,2.0197,2.0268,2.0302,2.0317,2.0372,2.0372,2.0416,2.0432,2.0501,2.0536,2.051,2.0625,2.0615,2.0623,2.06,2.0604,2.0607,2.0597,2.052,0,0,0,0,0,1.9984,2.0037,2.0105,2.0163,2.0188,2.024,2.0274,2.0298,2.0354,2.0376,2.0423,2.0477,2.0534,2.0571,2.0627,2.07,2.0717,2.073,2.0733,2.0735,2.0741,2.0783,2.0789,2.0719,2.0719,2.0719,0,0,1.9993,2.0043,2.0074,2.016,2.0203,2.0257,2.0259,2.0316,2.0357,2.0385,2.0455,2.0492,2.0555,2.0628,2.0662,2.0659,2.0764,2.0739,2.0741,2.0746,2.0787,2.0794,2.0799,2.0722,2.0721,2.0721,0,0,2.0036,2.0079,2.0132,2.0175,2.024,2.0274,2.0287,2.0356,2.0381,2.0452,2.0475,2.0524,2.0622,2.0665,2.0701,2.076,2.0774,2.0777,2.0793,2.0833,2.0839,2.0844,2.0865,2.0872,2.0783,2.0783,2.0783,0,2.0038,2.012,2.0158,2.0214,2.0252,2.0279,2.0334,2.0373,2.0453,2.0478,2.0474,2.0597,2.0641,2.0725,2.0739,2.0766,2.0783,2.0769,2.0835,2.084,2.0846,2.0867,2.0875,2.0783,2.0783,2.0783,2.0783,0,2.012,2.0177,2.0212,2.0288,2.033,2.0385,2.0431,2.0469,2.0489,2.0524,2.0597,2.0651,2.0718,2.074,2.0761,2.0827,2.0823,2.0826,2.0817,2.0851,2.0872,2.088,2.0782,2.0783,2.0783,2.0783,0,0,2.0154,2.025,2.0262,2.0297,2.037,2.0415,2.0471,2.0537,2.0568,2.0622,2.0671,2.0753,2.0756,2.0796,2.0822,2.0857,2.0901,2.0856,2.0858,2.0862,2.0977,2.0974,2.0983,2.091,2.0912,2.0913,2.0972,0,2.0207,2.0308,2.0343,2.0427,2.048,2.0507,2.0556,2.0606,2.064,2.0691,2.0729,2.0786,2.0786,2.081,2.0846,2.0887,2.0924,2.0884,2.0957,2.0959,2.0941,2.0994,2.0992,2.1044,2.098,2.0981,2.0982,0,2.0281,2.0336,2.0425,2.0491,2.0515,2.0558,2.0621,2.0669,2.0726,2.0749,2.0793,2.0816,2.0877,2.0864,2.0948,2.092,2.0952,2.0977,2.098,2.0989,2.0973,2.1005,2.1062,2.107,2.0995,2.0994,2.0993,0,2.0297,2.0393,2.0459,2.0487,2.0566,2.0596,2.0631,2.0687,2.0724,2.078,2.0804,2.0866,2.09,2.0947,2.0987,2.0974,2.1068,2.1058,2.1089,2.1088,2.1108,2.1106,2.1172,2.1127,2.1127,2.1127,2.1127,0,2.0353,2.0406,2.0467,2.0507,2.0568,2.0608,2.0668,2.0704,2.0754,2.0802,2.0829,2.0873,2.0922,2.0974,2.1005,2.107,2.1085,2.1106,2.1113,2.1104,2.1101,2.1126,2.1123,2.1129,2.1129,2.1128,2.1128,0,2.0381,2.0424,2.0497,2.0566,2.0584,2.0626,2.0685,2.0725,2.076,2.0821,2.0838,2.0893,2.0955,2.0999,2.1078,2.1099,2.117,2.1177,2.115,2.1154,2.1182,2.1179,2.1266,2.128,2.1226,2.1226,2.1227,0,2.0414,2.0455,2.0528,2.0562,2.0596,2.0651,2.0689,2.073,2.0769,2.0837,2.087,2.0933,2.0986,2.1083,2.1131,2.1192,2.1202,2.1228,2.1211,2.12,2.1203,2.12,2.1205,2.1231,2.1231,2.1231,2.1232,0,2.0467,2.0486,2.054,2.06,2.0645,2.0695,2.0745,2.0772,2.0822,2.0864,2.0927,2.0968,2.1049,2.1112,2.1178,2.1214,2.1232,2.1236,2.1247,2.1237,2.122,2.123,2.1157,2.1234,2.1234,2.1234,2.1234,2.1234,2.0499,2.0538,2.0595,2.0653,2.0695,2.0742,2.0783,2.0823,2.0876,2.0945,2.0967,2.1032,2.1089,2.1179,2.1216,2.1268,2.1267,2.1282,2.1286,2.1289,2.1289,2.1211,2.128,2.128,2.128,2.128,2.128,0,2.0555,2.0592,2.0646,2.0715,2.0762,2.0773,2.0829,2.0867,2.0925,2.0976,2.1027,2.11,2.1161,2.1213,2.1276,2.1308,2.1318,2.1324,2.1322,2.133,2.1286,2.1271,2.1315,2.1315,2.1315,2.1315,2.1315,2.1315,2.0589,2.0654,2.068,2.0767,2.0805,2.0869,2.09,2.0943,2.0984,2.1064,2.1115,2.1148,2.12,2.1267,2.1324,2.1337,2.136,2.1364,2.1379,2.1337,2.1333,2.1329,2.1315,2.1368,2.1368,2.1419,2.142,2.142]}]]